STARLINK-11601, 63110

Orbit data source: Space-Track

STARLINK-11601, 63110 is a payload satellite owned by SpaceX/Seattle (US) in LEO that was launched on Thu, 27 Feb 2025 UTC via an FALCON 9 launch vehicle from the Air Force Eastern Test Range (AFETR). Payload-class satellites include a variety of spacecraft equipped with specific instruments for various scientific and technological missions. These include communications satellites like Starlink; space stations such as the ISS; scientific satellites like the Hubble; Earth observation satellites from companies like Planet Labs, Umbra, and HawkEye 360; GPS; miniature CubeSats for education and research; and military/defense satellites.

Loading next visibility...
Identifier
63110, 2025-039G
Orbit
LEO
Country
Flag of USUS
Related business
Manufacturer
SpaceX/Seattle
Mission
Operational Commercial Communications
Bus & Motor
STARLINK V2MD, Unknown motor
Mass
960 kg wet, ~910 kg dry
Launch date (UTC)
2025-02-27 (1 year ago)
Launch vehicle
FALCON 9
Launch site
Air Force Eastern Test Range (AFETR)
Object type
Payload
Rocket body
Debris
Shape & HBR
Box + 2 Pan, 18.1 m
Radar Cross Section
36.964 m², Large (>1 m²)

Expand to show TLE details & history
Last TLE update: 14 hours ago

TLE from 14 hours ago
0 STARLINK-11601
1 63110U 25039G   26207.47956966  .00184309  00000-0  13956-2 0  9990
2 63110  43.0006 120.2533 0003249  63.1429 296.9770 15.71052095 81447
Epoch: 2026-07-26T11:30Z
TLE epoch observation values (Epoch: 2026-07-26T11:30:34.818Z)
Latitude
-0.00007°
Longitude
3.43125°
Altitude
354.668 km
Speed
7.699 km/s
True Right ascension
08h 01m 00s
True Declination
0° 00' 00"
Sunlit
Object was in daylight at epoch
Visualization orbit readout
Latitude
Unknown
Longitude
Unknown
Altitude
Unknown
Speed
Unknown
Apparent Right ascension
Unknown
Apparent Declination
Unknown
Sunlit
N/A
Visualization observer readout
Local Sidereal Time
14:32:14
Azimuth
Unknown
Elevation
Unknown
Doppler factor
Unknown
Orbital elements
Apogee altitude
360.059 km
Perigee altitude
355.682 km
Semi-major axis
6,736.008 km
Eccentricity
0.00032
Inclination
43.0006°
RAAN
120.2533°
Arg. of periapsis
63.1429°
True anomaly
296.94381°
Mean anomaly
296.977°
Eccentric anomaly
296.96041°
Mean motion
3.9259 °/min
Orbital period
91.7 mins
BSTAR
0.0013956
Loading maneuver chart data...
Computing Atmospheric mass density...
Loading historical data...
Loading historical data...
Loading historical data...
Loading historical data...
Loading historical data...
Loading historical data...
Loading historical data...

Documentation

Showing up to 5 results
|